FW1436 Weather Reports


Display with metric or nautical units.
time (UTC)temp
F
wind
direction
speed
MPH
gust
MPH
rain 1hr
in
rain 24hr
in
rain mn
in
humidity
%
barometer
mb
20260831231517 71 141 0.0 0.0 0.00 0.00 0.00 42 1013.5
20260831230022 71 141 0.0 0.0 0.00 0.00 0.00 42 1013.5
20260831224513 72 141 0.0 0.0 0.00 0.00 0.00 41 1013.3
20260831223010 73 159 0.0 0.0 0.00 0.00 0.00 42 1013.3
20260831221506 74 249 0.0 0.0 0.00 0.00 0.00 40 1013.2
20260831220007 74 249 0.0 0.0 0.00 0.00 0.00 38 1013.2
20260831214503 76 249 0.0 0.0 0.00 0.00 0.00 37 1013.2
20260831213004 77 293 0.0 1.0 0.00 0.00 0.00 36 1013.2
20260831211502 78 297 1.0 2.0 0.00 0.00 0.00 34 1013.1
20260831210001 78 302 0.0 2.0 0.00 0.00 0.00 35 1013.1
20260831204601 79 276 0.0 2.0 0.00 0.00 0.00 36 1013.0
20260831203111 79 12 0.0 3.0 0.00 0.00 0.00 36 1012.8
20260831201600 79 246 0.0 0.0 0.00 0.00 0.00 36 1012.7
20260831200059 80 233 0.0 0.0 0.00 0.00 0.00 35 1012.4
20260831194636 81 233 0.0 0.0 0.00 0.00 0.00 33 1012.2
20260831193100 81 233 0.0 0.0 0.00 0.00 0.00 32 1012.0
20260831191600 83 265 0.0 0.0 0.00 0.00 0.00 30 1011.9
20260831190113 84 283 0.0 1.0 0.00 0.00 0.00 30 1012.0
20260831184605 86 274 1.0 4.0 0.00 0.00 0.00 28 1011.9
20260831183100 87 275 1.0 6.0 0.00 0.00 0.00 27 1011.9
20260831181559 89 307 1.0 7.0 0.00 0.00 0.00 26 1011.8
20260831180051 89 275 1.0 6.0 0.00 0.00 0.00 27 1011.9
20260831174551 90 290 1.0 8.0 0.00 0.00 0.00 26 1012.0
20260831173053 90 277 4.0 10.0 0.00 0.00 0.00 25 1012.0
20260831171549 90 251 3.0 10.0 0.00 0.00 0.00 25 1012.0
20260831170049 90 295 3.0 9.0 0.00 0.00 0.00 23 1012.1
20260831164555 91 302 2.0 9.0 0.00 0.00 0.00 24 1012.0
20260831163049 91 160 1.0 6.0 0.00 0.00 0.00 26 1012.1
20260831161545 91 321 2.0 4.0 0.00 0.00 0.00 26 1012.2
20260831160042 91 54 1.0 6.0 0.00 0.00 0.00 27 1012.4
20260831154548 91 68 2.0 10.0 0.00 0.00 0.00 26 1012.5
20260831153037 90 300 2.0 8.0 0.00 0.00 0.00 27 1012.6
20260831151535 90 255 1.0 8.0 0.00 0.00 0.00 27 1012.7
20260831150034 90 261 3.0 9.0 0.00 0.00 0.00 27 1012.8
20260831144536 89 288 2.0 12.0 0.00 0.00 0.00 27 1012.8
20260831143134 89 325 2.0 6.0 0.00 0.00 0.00 28 1012.8
20260831141545 89 286 3.0 7.0 0.00 0.00 0.00 27 1013.0
20260831140038 89 295 2.0 10.0 0.00 0.00 0.00 27 1013.1
20260831134534 88 220 1.0 4.0 0.00 0.00 0.00 30 1013.3
20260831133031 88 49 1.0 9.0 0.00 0.00 0.00 29 1013.4
20260831131520 87 261 2.0 8.0 0.00 0.00 0.00 30 1013.5
20260831130019 87 300 4.0 10.0 0.00 0.00 0.00 30 1013.6
20260831124520 86 323 2.0 9.0 0.00 0.00 0.00 30 1013.9
20260831123020 86 327 3.0 10.0 0.00 0.00 0.00 31 1014.0
20260831121515 85 154 1.0 5.0 0.00 0.00 0.00 32 1014.1
20260831120013 85 300 2.0 5.0 0.00 0.00 0.00 33 1014.3
20260831114512 85 245 5.0 10.0 0.00 0.00 0.00 34 1014.4
20260831113013 83 4 1.0 5.0 0.00 0.00 0.00 35 1014.5
20260831111508 83 67 1.0 7.0 0.00 0.00 0.00 36 1014.8
20260831110006 82 212 1.0 5.0 0.00 0.00 0.00 36 1014.9
20260831104505 81 95 1.0 4.0 0.00 0.00 0.00 37 1015.1
20260831103002 81 271 0.0 4.0 0.00 0.00 0.00 38 1015.2
20260831101616 80 96 2.0 6.0 0.00 0.00 0.00 37 1015.3
20260831100108 79 108 4.0 8.0 0.00 0.00 0.00 37 1015.3
20260831094559 78 78 3.0 10.0 0.00 0.00 0.00 36 1015.3
20260831093054 78 101 2.0 7.0 0.00 0.00 0.00 38 1015.2
20260831091550 77 83 1.0 4.0 0.00 0.00 0.00 43 1015.3
20260831090104 77 114 2.0 4.0 0.00 0.00 0.00 43 1015.2
20260831084547 75 98 1.0 5.0 0.00 0.00 0.00 44 1015.1
20260831083045 74 111 1.0 3.0 0.00 0.00 0.00 46 1015.0
20260831081547 73 116 1.0 6.0 0.00 0.00 0.00 47 1014.9
20260831080044 72 80 3.0 6.0 0.00 0.00 0.00 50 1015.0
20260831074541 71 83 1.0 4.0 0.00 0.00 0.00 53 1014.9
20260831073040 70 88 1.0 2.0 0.00 0.00 0.00 54 1015.0
20260831071539 68 99 0.0 0.0 0.00 0.00 0.00 58 1014.9
20260831070038 66 99 0.0 0.0 0.00 0.00 0.00 61 1014.7
20260831064538 67 101 0.0 0.0 0.00 0.00 0.00 62 1014.6
20260831063036 66 129 0.0 0.0 0.00 0.00 0.00 62 1014.7
20260831061527 0 0.0 0.0 0.00 0.00 0.00 1014.6
20260831060021 0 0.0 0.0 0.00 0.00 0.00 1014.7
20260831054517 0 0.0 0.0 0.00 0.00 0.00 1014.6
20260831053013 0 0.0 0.0 0.00 0.00 0.00 1014.5
20260831051521 0 92 0.0 0.0 0.00 0.00 0.00 1014.5
20260831050006 63 94 0.0 0.0 0.00 0.00 0.00 66 1014.4
20260831044502 63 94 0.0 0.0 0.00 0.00 0.00 65 1014.3
20260831043001 64 94 0.0 1.0 0.00 0.00 0.00 64 1014.3
20260831041605 63 240 0.0 0.0 0.00 0.00 0.00 66 1014.2
20260831040056 65 240 0.0 1.0 0.00 0.00 0.00 64 1014.3
20260831034554 65 240 0.0 0.0 0.00 0.00 0.00 64 1014.2
20260831033053 66 240 0.0 1.0 0.00 0.00 0.00 61 1014.2
20260831031552 66 245 0.0 1.0 0.00 0.00 0.00 61 1014.2
20260831030108 66 247 0.0 1.0 0.00 0.00 0.00 60 1014.1
20260831024616 65 270 0.0 0.0 0.00 0.00 0.00 61 1014.0
20260831023049 65 270 0.0 0.0 0.00 0.00 0.00 60 1013.9
20260831021547 67 260 0.0 1.0 0.00 0.00 0.00 60 1013.9
20260831020046 67 255 1.0 3.0 0.00 0.00 0.00 60 1013.9
20260831014545 65 236 0.0 0.0 0.00 0.00 0.00 62 1014.0
20260831013059 65 236 0.0 0.0 0.00 0.00 0.00 62 1013.9
20260831011540 66 236 0.0 0.0 0.00 0.00 0.00 61 1013.9
20260831010038 67 236 0.0 0.0 0.00 0.00 0.00 59 1014.0
20260831004537 67 179 0.0 1.0 0.00 0.00 0.00 59 1014.1
20260831003032 69 116 0.0 1.0 0.00 0.00 0.00 58 1014.0
20260831001529 69 116 0.0 1.0 0.00 0.00 0.00 58 1013.8
20260831000029 69 13 0.0 0.0 0.00 0.00 0.00 59 1013.8
20260830234526 69 13 0.0 0.0 0.00 0.00 0.00 59 1013.8
20260830233025 70 300 0.0 0.0 0.00 0.00 0.00 58 1013.7